TimeMDT,TemperatureF,Dew PointF,Humidity,Sea Level PressureIn,VisibilityMPH,Wind Direction,Wind SpeedMPH,Gust SpeedMPH,PrecipitationIn,Events,Conditions,WindDirDegrees,DateUTC
12:53 AM,55.0,39.0,55,30.04,10.0,Calm,Calm,-,N/A,,Clear,0,2013-05-09 06:53:00
1:53 AM,51.1,37.9,61,30.06,10.0,Calm,Calm,-,N/A,,Clear,0,2013-05-09 07:53:00
2:53 AM,50.0,37.9,63,30.07,10.0,Calm,Calm,-,N/A,,Scattered Clouds,0,2013-05-09 08:53:00
3:53 AM,46.9,37.0,68,30.09,10.0,NNW,3.5,-,N/A,,Mostly Cloudy,340,2013-05-09 09:53:00
4:53 AM,45.0,37.0,74,30.11,10.0,Calm,Calm,-,N/A,,Clear,0,2013-05-09 10:53:00
5:53 AM,45.0,37.0,74,30.11,10.0,Calm,Calm,-,N/A,,Clear,0,2013-05-09 11:53:00
6:53 AM,44.1,37.0,76,30.13,10.0,Calm,Calm,-,N/A,,Clear,0,2013-05-09 12:53:00
7:53 AM,51.1,39.0,63,30.14,10.0,Calm,Calm,-,N/A,,Clear,0,2013-05-09 13:53:00
8:53 AM,54.0,42.1,64,30.14,10.0,Calm,Calm,-,N/A,,Clear,0,2013-05-09 14:53:00
9:53 AM,57.9,39.9,51,30.14,10.0,Calm,Calm,-,N/A,,Clear,0,2013-05-09 15:53:00
10:53 AM,62.6,39.2,42,30.16,10.0,SE,4.6,-,N/A,,Clear,140,2013-05-09 16:53:00
11:53 AM,66.0,39.9,38,30.12,10.0,Calm,Calm,-,N/A,,Clear,0,2013-05-09 17:53:00
12:53 PM,72.0,41.0,33,30.09,10.0,Calm,Calm,-,N/A,,Clear,0,2013-05-09 18:53:00
1:53 PM,75.2,39.2,27,30.09,10.0,Variable,3.5,-,N/A,,Clear,0,2013-05-09 19:53:00
2:53 PM,79.0,37.9,23,30.03,10.0,Variable,4.6,-,N/A,,Clear,0,2013-05-09 20:53:00
3:53 PM,82.0,37.0,20,30.01,10.0,NNW,11.5,-,N/A,,Clear,340,2013-05-09 21:53:00
4:53 PM,73.9,39.9,29,30.04,10.0,SW,8.1,21.9,N/A,,Mostly Cloudy,230,2013-05-09 22:53:00
5:53 PM,71.1,52.0,51,30.04,10.0,South,9.2,-,0.02,,Mostly Cloudy,180,2013-05-09 23:53:00
6:53 PM,73.9,45.0,35,30.03,10.0,SSE,9.2,-,N/A,,Clear,160,2013-05-10 00:53:00
7:53 PM,71.1,45.0,39,30.03,10.0,Variable,3.5,-,N/A,,Clear,0,2013-05-10 01:53:00
8:53 PM,68.0,43.0,40,30.04,10.0,East,3.5,-,N/A,,Clear,80,2013-05-10 02:53:00
9:53 PM,63.0,45.0,52,30.06,10.0,SE,10.4,-,N/A,,Clear,130,2013-05-10 03:53:00
10:53 PM,62.6,44.6,52,30.11,10.0,East,4.6,-,N/A,,Clear,100,2013-05-10 04:53:00
11:53 PM,59.0,45.0,60,30.10,10.0,Calm,Calm,-,N/A,,Clear,0,2013-05-10 05:53:00